owner,sensor,date,latitude,longitude,relative_humidity,qcFlag 
COMPS,ioos:station:USF.COMPS:ARP:1,2016-01-01T03:00:00Z,28.4330,-82.6670,94.94,1111122 
COMPS,ioos:station:USF.COMPS:ARP:1,2016-01-01T03:06:00Z,28.4330,-82.6670,94.99,1111122 
COMPS,ioos:station:USF.COMPS:ARP:1,2016-01-01T03:12:00Z,28.4330,-82.6670,94.99,1111122 
COMPS,ioos:station:USF.COMPS:ARP:1,2016-01-01T03:18:00Z,28.4330,-82.6670,95.22,1111122 
COMPS,ioos:station:USF.COMPS:ARP:1,2016-01-01T03:24:00Z,28.4330,-82.6670,95.34,1111122 
COMPS,ioos:station:USF.COMPS:ARP:1,2016-01-01T03:30:00Z,28.4330,-82.6670,95.23,1111122 
COMPS,ioos:station:USF.COMPS:ARP:1,2016-01-01T03:36:00Z,28.4330,-82.6670,95.41,1111122 
COMPS,ioos:station:USF.COMPS:ARP:1,2016-01-01T03:42:00Z,28.4330,-82.6670,95.54,1111122 
COMPS,ioos:station:USF.COMPS:ARP:1,2016-01-01T03:48:00Z,28.4330,-82.6670,95.68,1111122 
COMPS,ioos:station:USF.COMPS:ARP:1,2016-01-01T03:54:00Z,28.4330,-82.6670,95.71,1111122 
COMPS,ioos:station:USF.COMPS:ARP:1,2016-01-01T04:00:00Z,28.4330,-82.6670,95.94,1111122 
COMPS,ioos:station:USF.COMPS:ARP:1,2016-01-01T04:06:00Z,28.4330,-82.6670,95.92,1111122 
COMPS,ioos:station:USF.COMPS:ARP:1,2016-01-01T04:12:00Z,28.4330,-82.6670,96.05,1111122 
COMPS,ioos:station:USF.COMPS:ARP:1,2016-01-01T04:18:00Z,28.4330,-82.6670,96.15,1111122 
COMPS,ioos:station:USF.COMPS:ARP:1,2016-01-01T04:24:00Z,28.4330,-82.6670,96.16,1111122 
COMPS,ioos:station:USF.COMPS:ARP:1,2016-01-01T04:30:00Z,28.4330,-82.6670,96.32,1111122 
COMPS,ioos:station:USF.COMPS:ARP:1,2016-01-01T04:36:00Z,28.4330,-82.6670,96.33,1111122 
COMPS,ioos:station:USF.COMPS:ARP:1,2016-01-01T04:42:00Z,28.4330,-82.6670,96.41,1111122 
COMPS,ioos:station:USF.COMPS:ARP:1,2016-01-01T04:48:00Z,28.4330,-82.6670,96.46,1111122 
COMPS,ioos:station:USF.COMPS:ARP:1,2016-01-01T04:54:00Z,28.4330,-82.6670,96.58,1111122 
COMPS,ioos:station:USF.COMPS:ARP:1,2016-01-01T05:00:00Z,28.4330,-82.6670,96.86,1111122 
COMPS,ioos:station:USF.COMPS:ARP:1,2016-01-01T05:06:00Z,28.4330,-82.6670,96.65,1111122 
COMPS,ioos:station:USF.COMPS:ARP:1,2016-01-01T05:12:00Z,28.4330,-82.6670,96.91,1111122 
COMPS,ioos:station:USF.COMPS:ARP:1,2016-01-01T05:18:00Z,28.4330,-82.6670,96.85,1111122 
COMPS,ioos:station:USF.COMPS:ARP:1,2016-01-01T05:24:00Z,28.4330,-82.6670,96.9,1111122 
COMPS,ioos:station:USF.COMPS:ARP:1,2016-01-01T05:30:00Z,28.4330,-82.6670,96.93,1111122 
COMPS,ioos:station:USF.COMPS:ARP:1,2016-01-01T05:36:00Z,28.4330,-82.6670,97.03,1111122 
COMPS,ioos:station:USF.COMPS:ARP:1,2016-01-01T05:42:00Z,28.4330,-82.6670,97.11,1111122 
COMPS,ioos:station:USF.COMPS:ARP:1,2016-01-01T05:48:00Z,28.4330,-82.6670,97.19,1111122 
COMPS,ioos:station:USF.COMPS:ARP:1,2016-01-01T05:54:00Z,28.4330,-82.6670,97.07,1111122 
COMPS,ioos:station:USF.COMPS:ARP:1,2016-01-01T06:00:00Z,28.4330,-82.6670,97.05,1111122 
COMPS,ioos:station:USF.COMPS:ARP:1,2016-01-01T06:06:00Z,28.4330,-82.6670,97.27,1111122 
COMPS,ioos:station:USF.COMPS:ARP:1,2016-01-01T06:12:00Z,28.4330,-82.6670,97.25,1111122 
COMPS,ioos:station:USF.COMPS:ARP:1,2016-01-01T06:18:00Z,28.4330,-82.6670,97.48,1111122 
COMPS,ioos:station:USF.COMPS:ARP:1,2016-01-01T06:24:00Z,28.4330,-82.6670,97.59,1111122 
COMPS,ioos:station:USF.COMPS:ARP:1,2016-01-01T06:30:00Z,28.4330,-82.6670,97.34,1111122 
COMPS,ioos:station:USF.COMPS:ARP:1,2016-01-01T06:36:00Z,28.4330,-82.6670,97.33,1111122 
COMPS,ioos:station:USF.COMPS:ARP:1,2016-01-01T06:42:00Z,28.4330,-82.6670,97.39,1111122 
COMPS,ioos:station:USF.COMPS:ARP:1,2016-01-01T06:48:00Z,28.4330,-82.6670,97.29,1111122 
COMPS,ioos:station:USF.COMPS:ARP:1,2016-01-01T06:54:00Z,28.4330,-82.6670,97.37,1111122 
COMPS,ioos:station:USF.COMPS:ARP:1,2016-01-01T07:00:00Z,28.4330,-82.6670,97.45,1111122 
COMPS,ioos:station:USF.COMPS:ARP:1,2016-01-01T07:06:00Z,28.4330,-82.6670,97.54,1111122 
COMPS,ioos:station:USF.COMPS:ARP:1,2016-01-01T07:12:00Z,28.4330,-82.6670,97.65,1111122 
COMPS,ioos:station:USF.COMPS:ARP:1,2016-01-01T07:18:00Z,28.4330,-82.6670,97.64,1111122 
COMPS,ioos:station:USF.COMPS:ARP:1,2016-01-01T07:24:00Z,28.4330,-82.6670,97.51,1111122 
COMPS,ioos:station:USF.COMPS:ARP:1,2016-01-01T07:30:00Z,28.4330,-82.6670,97.52,1111122 
COMPS,ioos:station:USF.COMPS:ARP:1,2016-01-01T07:36:00Z,28.4330,-82.6670,97.48,1111122 
COMPS,ioos:station:USF.COMPS:ARP:1,2016-01-01T07:42:00Z,28.4330,-82.6670,97.51,1111122 
COMPS,ioos:station:USF.COMPS:ARP:1,2016-01-01T07:48:00Z,28.4330,-82.6670,97.57,1111122 
COMPS,ioos:station:USF.COMPS:ARP:1,2016-01-01T07:54:00Z,28.4330,-82.6670,97.42,1111122 
COMPS,ioos:station:USF.COMPS:ARP:1,2016-01-01T08:00:00Z,28.4330,-82.6670,97.66,1111122 
COMPS,ioos:station:USF.COMPS:ARP:1,2016-01-01T08:06:00Z,28.4330,-82.6670,97.82,1111122 
COMPS,ioos:station:USF.COMPS:ARP:1,2016-01-01T08:12:00Z,28.4330,-82.6670,97.66,1111122 
COMPS,ioos:station:USF.COMPS:ARP:1,2016-01-01T08:18:00Z,28.4330,-82.6670,97.68,1111122 
COMPS,ioos:station:USF.COMPS:ARP:1,2016-01-01T08:24:00Z,28.4330,-82.6670,97.69,1111122 
COMPS,ioos:station:USF.COMPS:ARP:1,2016-01-01T08:30:00Z,28.4330,-82.6670,97.7,1111122 
COMPS,ioos:station:USF.COMPS:ARP:1,2016-01-01T08:36:00Z,28.4330,-82.6670,97.76,1111122 
COMPS,ioos:station:USF.COMPS:ARP:1,2016-01-01T08:42:00Z,28.4330,-82.6670,97.67,1111122 
COMPS,ioos:station:USF.COMPS:ARP:1,2016-01-01T08:48:00Z,28.4330,-82.6670,97.57,1111122 
COMPS,ioos:station:USF.COMPS:ARP:1,2016-01-01T08:54:00Z,28.4330,-82.6670,97.68,1111122 
COMPS,ioos:station:USF.COMPS:ARP:1,2016-01-01T09:00:00Z,28.4330,-82.6670,97.73,1111122 
COMPS,ioos:station:USF.COMPS:ARP:1,2016-01-01T09:06:00Z,28.4330,-82.6670,97.72,1111122 
COMPS,ioos:station:USF.COMPS:ARP:1,2016-01-01T09:12:00Z,28.4330,-82.6670,97.67,1111122 
COMPS,ioos:station:USF.COMPS:ARP:1,2016-01-01T09:18:00Z,28.4330,-82.6670,97.64,1111122 
COMPS,ioos:station:USF.COMPS:ARP:1,2016-01-01T09:24:00Z,28.4330,-82.6670,97.73,1111122 
COMPS,ioos:station:USF.COMPS:ARP:1,2016-01-01T09:30:00Z,28.4330,-82.6670,97.72,1111122 
COMPS,ioos:station:USF.COMPS:ARP:1,2016-01-01T09:36:00Z,28.4330,-82.6670,97.78,1111122 
COMPS,ioos:station:USF.COMPS:ARP:1,2016-01-01T09:42:00Z,28.4330,-82.6670,97.78,1111122 
COMPS,ioos:station:USF.COMPS:ARP:1,2016-01-01T09:48:00Z,28.4330,-82.6670,97.8,1111122 
COMPS,ioos:station:USF.COMPS:ARP:1,2016-01-01T09:54:00Z,28.4330,-82.6670,97.82,1111122 
COMPS,ioos:station:USF.COMPS:ARP:1,2016-01-01T10:00:00Z,28.4330,-82.6670,97.89,1111122 
COMPS,ioos:station:USF.COMPS:ARP:1,2016-01-01T10:06:00Z,28.4330,-82.6670,98.0,1111122 
COMPS,ioos:station:USF.COMPS:ARP:1,2016-01-01T10:12:00Z,28.4330,-82.6670,98.01,1111122 
COMPS,ioos:station:USF.COMPS:ARP:1,2016-01-01T10:18:00Z,28.4330,-82.6670,98.01,1111122 
COMPS,ioos:station:USF.COMPS:ARP:1,2016-01-01T10:24:00Z,28.4330,-82.6670,97.95,1111122 
COMPS,ioos:station:USF.COMPS:ARP:1,2016-01-01T10:30:00Z,28.4330,-82.6670,97.92,1111122 
COMPS,ioos:station:USF.COMPS:ARP:1,2016-01-01T10:36:00Z,28.4330,-82.6670,98.01,1111122 
COMPS,ioos:station:USF.COMPS:ARP:1,2016-01-01T10:42:00Z,28.4330,-82.6670,98.14,1111122 
COMPS,ioos:station:USF.COMPS:ARP:1,2016-01-01T10:48:00Z,28.4330,-82.6670,98.3,1111122 
COMPS,ioos:station:USF.COMPS:ARP:1,2016-01-01T10:54:00Z,28.4330,-82.6670,98.1,1111122 
COMPS,ioos:station:USF.COMPS:ARP:1,2016-01-01T11:00:00Z,28.4330,-82.6670,98.08,1111122 
COMPS,ioos:station:USF.COMPS:ARP:1,2016-01-01T11:06:00Z,28.4330,-82.6670,97.99,1111122 
COMPS,ioos:station:USF.COMPS:ARP:1,2016-01-01T11:12:00Z,28.4330,-82.6670,97.99,1111122 
COMPS,ioos:station:USF.COMPS:ARP:1,2016-01-01T11:18:00Z,28.4330,-82.6670,97.86,1111122 
COMPS,ioos:station:USF.COMPS:ARP:1,2016-01-01T11:24:00Z,28.4330,-82.6670,97.93,1111122 
COMPS,ioos:station:USF.COMPS:ARP:1,2016-01-01T11:30:00Z,28.4330,-82.6670,97.92,1111122 
COMPS,ioos:station:USF.COMPS:ARP:1,2016-01-01T11:36:00Z,28.4330,-82.6670,97.98,1111122 
COMPS,ioos:station:USF.COMPS:ARP:1,2016-01-01T11:42:00Z,28.4330,-82.6670,98.02,1111122 
COMPS,ioos:station:USF.COMPS:ARP:1,2016-01-01T11:48:00Z,28.4330,-82.6670,98.11,1111122 
COMPS,ioos:station:USF.COMPS:ARP:1,2016-01-01T11:54:00Z,28.4330,-82.6670,98.15,1111122 
COMPS,ioos:station:USF.COMPS:ARP:1,2016-01-01T12:00:00Z,28.4330,-82.6670,98.23,1111122 
COMPS,ioos:station:USF.COMPS:ARP:1,2016-01-01T12:06:00Z,28.4330,-82.6670,98.24,1111122 
COMPS,ioos:station:USF.COMPS:ARP:1,2016-01-01T12:12:00Z,28.4330,-82.6670,98.3,1111122 
COMPS,ioos:station:USF.COMPS:ARP:1,2016-01-01T12:18:00Z,28.4330,-82.6670,98.27,1111122 
COMPS,ioos:station:USF.COMPS:ARP:1,2016-01-01T12:24:00Z,28.4330,-82.6670,98.32,1111122 
COMPS,ioos:station:USF.COMPS:ARP:1,2016-01-01T12:30:00Z,28.4330,-82.6670,98.37,1111122 
COMPS,ioos:station:USF.COMPS:ARP:1,2016-01-01T12:36:00Z,28.4330,-82.6670,98.38,1111122 
COMPS,ioos:station:USF.COMPS:ARP:1,2016-01-01T12:42:00Z,28.4330,-82.6670,98.4,1111122 
COMPS,ioos:station:USF.COMPS:ARP:1,2016-01-01T12:48:00Z,28.4330,-82.6670,98.48,1111122 
COMPS,ioos:station:USF.COMPS:ARP:1,2016-01-01T12:54:00Z,28.4330,-82.6670,98.48,1111122 
COMPS,ioos:station:USF.COMPS:ARP:1,2016-01-01T13:00:00Z,28.4330,-82.6670,98.49,1111122 
COMPS,ioos:station:USF.COMPS:ARP:1,2016-01-01T13:06:00Z,28.4330,-82.6670,98.56,1111122 
COMPS,ioos:station:USF.COMPS:ARP:1,2016-01-01T13:12:00Z,28.4330,-82.6670,98.54,1111122 
COMPS,ioos:station:USF.COMPS:ARP:1,2016-01-01T13:18:00Z,28.4330,-82.6670,98.5,1111122 
COMPS,ioos:station:USF.COMPS:ARP:1,2016-01-01T13:24:00Z,28.4330,-82.6670,98.48,1111122 
COMPS,ioos:station:USF.COMPS:ARP:1,2016-01-01T13:30:00Z,28.4330,-82.6670,98.49,1111122 
COMPS,ioos:station:USF.COMPS:ARP:1,2016-01-01T13:36:00Z,28.4330,-82.6670,98.33,1111122 
COMPS,ioos:station:USF.COMPS:ARP:1,2016-01-01T13:42:00Z,28.4330,-82.6670,98.23,1111122 
COMPS,ioos:station:USF.COMPS:ARP:1,2016-01-01T13:48:00Z,28.4330,-82.6670,98.13,1111122 
COMPS,ioos:station:USF.COMPS:ARP:1,2016-01-01T13:54:00Z,28.4330,-82.6670,98.1,1111122 
COMPS,ioos:station:USF.COMPS:ARP:1,2016-01-01T14:00:00Z,28.4330,-82.6670,97.75,1111122 
COMPS,ioos:station:USF.COMPS:ARP:1,2016-01-01T14:06:00Z,28.4330,-82.6670,97.6,1111122 
COMPS,ioos:station:USF.COMPS:ARP:1,2016-01-01T14:12:00Z,28.4330,-82.6670,96.98,1111122 
COMPS,ioos:station:USF.COMPS:ARP:1,2016-01-01T14:18:00Z,28.4330,-82.6670,96.74,1111122 
COMPS,ioos:station:USF.COMPS:ARP:1,2016-01-01T14:24:00Z,28.4330,-82.6670,96.28,1111122 
COMPS,ioos:station:USF.COMPS:ARP:1,2016-01-01T14:30:00Z,28.4330,-82.6670,95.57,1111122 
COMPS,ioos:station:USF.COMPS:ARP:1,2016-01-01T14:36:00Z,28.4330,-82.6670,94.54,1111122 
COMPS,ioos:station:USF.COMPS:ARP:1,2016-01-01T14:42:00Z,28.4330,-82.6670,93.56,1111122 
COMPS,ioos:station:USF.COMPS:ARP:1,2016-01-01T14:48:00Z,28.4330,-82.6670,92.9,1111122 
COMPS,ioos:station:USF.COMPS:ARP:1,2016-01-01T14:54:00Z,28.4330,-82.6670,91.92,1111122 
COMPS,ioos:station:USF.COMPS:ARP:1,2016-01-01T15:00:00Z,28.4330,-82.6670,90.52,1111122 
COMPS,ioos:station:USF.COMPS:ARP:1,2016-01-01T15:06:00Z,28.4330,-82.6670,89.35,1111122 
COMPS,ioos:station:USF.COMPS:ARP:1,2016-01-01T15:12:00Z,28.4330,-82.6670,87.71,1111122 
COMPS,ioos:station:USF.COMPS:ARP:1,2016-01-01T15:18:00Z,28.4330,-82.6670,85.92,1111122 
COMPS,ioos:station:USF.COMPS:ARP:1,2016-01-01T15:24:00Z,28.4330,-82.6670,84.71,1111122 
COMPS,ioos:station:USF.COMPS:ARP:1,2016-01-01T15:30:00Z,28.4330,-82.6670,82.99,1111122 
COMPS,ioos:station:USF.COMPS:ARP:1,2016-01-01T15:36:00Z,28.4330,-82.6670,81.73,1111122 
COMPS,ioos:station:USF.COMPS:ARP:1,2016-01-01T15:42:00Z,28.4330,-82.6670,79.56,1111122 
COMPS,ioos:station:USF.COMPS:ARP:1,2016-01-01T15:48:00Z,28.4330,-82.6670,78.44,1111122 
COMPS,ioos:station:USF.COMPS:ARP:1,2016-01-01T15:54:00Z,28.4330,-82.6670,77.18,1111122 
COMPS,ioos:station:USF.COMPS:ARP:1,2016-01-01T16:00:00Z,28.4330,-82.6670,78.56,1111122 
COMPS,ioos:station:USF.COMPS:ARP:1,2016-01-01T16:06:00Z,28.4330,-82.6670,78.6,1111122 
COMPS,ioos:station:USF.COMPS:ARP:1,2016-01-01T16:12:00Z,28.4330,-82.6670,77.79,1111122 
COMPS,ioos:station:USF.COMPS:ARP:1,2016-01-01T16:18:00Z,28.4330,-82.6670,77.15,1111122 
COMPS,ioos:station:USF.COMPS:ARP:1,2016-01-01T16:24:00Z,28.4330,-82.6670,75.51,1111122 
COMPS,ioos:station:USF.COMPS:ARP:1,2016-01-01T16:30:00Z,28.4330,-82.6670,76.04,1111122 
COMPS,ioos:station:USF.COMPS:ARP:1,2016-01-01T16:36:00Z,28.4330,-82.6670,77.03,1111122 
COMPS,ioos:station:USF.COMPS:ARP:1,2016-01-01T16:42:00Z,28.4330,-82.6670,75.95,1111122 
COMPS,ioos:station:USF.COMPS:ARP:1,2016-01-01T16:48:00Z,28.4330,-82.6670,75.95,1111122 
COMPS,ioos:station:USF.COMPS:ARP:1,2016-01-01T16:54:00Z,28.4330,-82.6670,74.86,1111122 
COMPS,ioos:station:USF.COMPS:ARP:1,2016-01-02T03:00:00Z,28.4330,-82.6670,90.86,1111122 
COMPS,ioos:station:USF.COMPS:ARP:1,2016-01-02T03:06:00Z,28.4330,-82.6670,90.43,1111122 
COMPS,ioos:station:USF.COMPS:ARP:1,2016-01-02T03:12:00Z,28.4330,-82.6670,89.62,1111122 
COMPS,ioos:station:USF.COMPS:ARP:1,2016-01-02T03:18:00Z,28.4330,-82.6670,89.14,1111122 
COMPS,ioos:station:USF.COMPS:ARP:1,2016-01-02T03:24:00Z,28.4330,-82.6670,88.64,1111122 
COMPS,ioos:station:USF.COMPS:ARP:1,2016-01-02T03:30:00Z,28.4330,-82.6670,88.59,1111122 
COMPS,ioos:station:USF.COMPS:ARP:1,2016-01-02T03:36:00Z,28.4330,-82.6670,88.48,1111122 
COMPS,ioos:station:USF.COMPS:ARP:1,2016-01-02T03:42:00Z,28.4330,-82.6670,88.43,1111122 
COMPS,ioos:station:USF.COMPS:ARP:1,2016-01-02T03:48:00Z,28.4330,-82.6670,88.63,1111122 
COMPS,ioos:station:USF.COMPS:ARP:1,2016-01-02T03:54:00Z,28.4330,-82.6670,88.72,1111122 
COMPS,ioos:station:USF.COMPS:ARP:1,2016-01-02T04:00:00Z,28.4330,-82.6670,88.77,1111122 
COMPS,ioos:station:USF.COMPS:ARP:1,2016-01-02T04:06:00Z,28.4330,-82.6670,88.47,1111122 
COMPS,ioos:station:USF.COMPS:ARP:1,2016-01-02T04:12:00Z,28.4330,-82.6670,88.68,1111122 
COMPS,ioos:station:USF.COMPS:ARP:1,2016-01-02T04:18:00Z,28.4330,-82.6670,88.98,1111122 
COMPS,ioos:station:USF.COMPS:ARP:1,2016-01-02T04:24:00Z,28.4330,-82.6670,89.11,1111122 
COMPS,ioos:station:USF.COMPS:ARP:1,2016-01-02T04:30:00Z,28.4330,-82.6670,89.14,1111122 
COMPS,ioos:station:USF.COMPS:ARP:1,2016-01-02T04:36:00Z,28.4330,-82.6670,89.36,1111122 
COMPS,ioos:station:USF.COMPS:ARP:1,2016-01-02T04:42:00Z,28.4330,-82.6670,89.5,1111122 
COMPS,ioos:station:USF.COMPS:ARP:1,2016-01-02T04:48:00Z,28.4330,-82.6670,89.41,1111122 
COMPS,ioos:station:USF.COMPS:ARP:1,2016-01-02T04:54:00Z,28.4330,-82.6670,89.36,1111122 
COMPS,ioos:station:USF.COMPS:ARP:1,2016-01-02T05:00:00Z,28.4330,-82.6670,89.51,1111122 
COMPS,ioos:station:USF.COMPS:ARP:1,2016-01-02T05:06:00Z,28.4330,-82.6670,89.79,1111122 
COMPS,ioos:station:USF.COMPS:ARP:1,2016-01-02T05:12:00Z,28.4330,-82.6670,89.48,1111122 
COMPS,ioos:station:USF.COMPS:ARP:1,2016-01-02T05:18:00Z,28.4330,-82.6670,89.44,1111122 
COMPS,ioos:station:USF.COMPS:ARP:1,2016-01-02T05:24:00Z,28.4330,-82.6670,90.07,1111122 
COMPS,ioos:station:USF.COMPS:ARP:1,2016-01-02T05:30:00Z,28.4330,-82.6670,91.18,1111122 
COMPS,ioos:station:USF.COMPS:ARP:1,2016-01-02T05:36:00Z,28.4330,-82.6670,92.17,1111122 
COMPS,ioos:station:USF.COMPS:ARP:1,2016-01-02T05:42:00Z,28.4330,-82.6670,92.9,1111122 
COMPS,ioos:station:USF.COMPS:ARP:1,2016-01-02T05:48:00Z,28.4330,-82.6670,93.5,1111122 
COMPS,ioos:station:USF.COMPS:ARP:1,2016-01-02T05:54:00Z,28.4330,-82.6670,94.02,1111122 
COMPS,ioos:station:USF.COMPS:ARP:1,2016-01-02T06:00:00Z,28.4330,-82.6670,94.52,1111122 
COMPS,ioos:station:USF.COMPS:ARP:1,2016-01-02T06:06:00Z,28.4330,-82.6670,94.83,1111122 
COMPS,ioos:station:USF.COMPS:ARP:1,2016-01-02T06:12:00Z,28.4330,-82.6670,95.08,1111122 
COMPS,ioos:station:USF.COMPS:ARP:1,2016-01-02T06:18:00Z,28.4330,-82.6670,95.34,1111122 
COMPS,ioos:station:USF.COMPS:ARP:1,2016-01-02T06:24:00Z,28.4330,-82.6670,95.5,1111122 
COMPS,ioos:station:USF.COMPS:ARP:1,2016-01-02T06:30:00Z,28.4330,-82.6670,95.63,1111122 
COMPS,ioos:station:USF.COMPS:ARP:1,2016-01-02T06:36:00Z,28.4330,-82.6670,95.87,1111122 
COMPS,ioos:station:USF.COMPS:ARP:1,2016-01-02T06:42:00Z,28.4330,-82.6670,95.78,1111122 
COMPS,ioos:station:USF.COMPS:ARP:1,2016-01-02T06:48:00Z,28.4330,-82.6670,95.9,1111122 
COMPS,ioos:station:USF.COMPS:ARP:1,2016-01-02T06:54:00Z,28.4330,-82.6670,96.13,1111122 
COMPS,ioos:station:USF.COMPS:ARP:1,2016-01-02T07:00:00Z,28.4330,-82.6670,96.38,1111122 
COMPS,ioos:station:USF.COMPS:ARP:1,2016-01-02T07:06:00Z,28.4330,-82.6670,96.49,1111122 
COMPS,ioos:station:USF.COMPS:ARP:1,2016-01-02T07:12:00Z,28.4330,-82.6670,96.43,1111122 
COMPS,ioos:station:USF.COMPS:ARP:1,2016-01-02T07:18:00Z,28.4330,-82.6670,96.65,1111122 
COMPS,ioos:station:USF.COMPS:ARP:1,2016-01-02T07:24:00Z,28.4330,-82.6670,96.77,1111122 
COMPS,ioos:station:USF.COMPS:ARP:1,2016-01-02T07:30:00Z,28.4330,-82.6670,96.8,1111122 
COMPS,ioos:station:USF.COMPS:ARP:1,2016-01-02T07:36:00Z,28.4330,-82.6670,96.77,1111122 
COMPS,ioos:station:USF.COMPS:ARP:1,2016-01-02T07:42:00Z,28.4330,-82.6670,96.74,1111122 
COMPS,ioos:station:USF.COMPS:ARP:1,2016-01-02T07:48:00Z,28.4330,-82.6670,96.94,1111122 
COMPS,ioos:station:USF.COMPS:ARP:1,2016-01-02T07:54:00Z,28.4330,-82.6670,97.07,1111122 
COMPS,ioos:station:USF.COMPS:ARP:1,2016-01-02T08:00:00Z,28.4330,-82.6670,97.16,1111122 
COMPS,ioos:station:USF.COMPS:ARP:1,2016-01-02T08:06:00Z,28.4330,-82.6670,97.32,1111122 
COMPS,ioos:station:USF.COMPS:ARP:1,2016-01-02T08:12:00Z,28.4330,-82.6670,97.42,1111122 
COMPS,ioos:station:USF.COMPS:ARP:1,2016-01-02T08:18:00Z,28.4330,-82.6670,97.49,1111122 
COMPS,ioos:station:USF.COMPS:ARP:1,2016-01-02T08:24:00Z,28.4330,-82.6670,97.25,1111122 
COMPS,ioos:station:USF.COMPS:ARP:1,2016-01-02T08:30:00Z,28.4330,-82.6670,97.3,1111122 
COMPS,ioos:station:USF.COMPS:ARP:1,2016-01-02T08:36:00Z,28.4330,-82.6670,97.34,1111122 
COMPS,ioos:station:USF.COMPS:ARP:1,2016-01-02T08:42:00Z,28.4330,-82.6670,97.56,1111122 
COMPS,ioos:station:USF.COMPS:ARP:1,2016-01-02T08:48:00Z,28.4330,-82.6670,97.37,1111122 
COMPS,ioos:station:USF.COMPS:ARP:1,2016-01-02T08:54:00Z,28.4330,-82.6670,97.32,1111122 
COMPS,ioos:station:USF.COMPS:ARP:1,2016-01-02T09:00:00Z,28.4330,-82.6670,97.12,1111122 
COMPS,ioos:station:USF.COMPS:ARP:1,2016-01-02T09:06:00Z,28.4330,-82.6670,97.0,1111122 
COMPS,ioos:station:USF.COMPS:ARP:1,2016-01-02T09:12:00Z,28.4330,-82.6670,96.76,1111122 
COMPS,ioos:station:USF.COMPS:ARP:1,2016-01-02T09:18:00Z,28.4330,-82.6670,96.4,1111122 
COMPS,ioos:station:USF.COMPS:ARP:1,2016-01-02T09:24:00Z,28.4330,-82.6670,96.15,1111122 
COMPS,ioos:station:USF.COMPS:ARP:1,2016-01-02T09:30:00Z,28.4330,-82.6670,95.61,1111122 
COMPS,ioos:station:USF.COMPS:ARP:1,2016-01-02T09:36:00Z,28.4330,-82.6670,95.28,1111122 
COMPS,ioos:station:USF.COMPS:ARP:1,2016-01-02T09:42:00Z,28.4330,-82.6670,95.05,1111122 
COMPS,ioos:station:USF.COMPS:ARP:1,2016-01-02T09:48:00Z,28.4330,-82.6670,95.07,1111122 
COMPS,ioos:station:USF.COMPS:ARP:1,2016-01-02T09:54:00Z,28.4330,-82.6670,94.8,1111122 
COMPS,ioos:station:USF.COMPS:ARP:1,2016-01-02T10:00:00Z,28.4330,-82.6670,94.84,1111122 
COMPS,ioos:station:USF.COMPS:ARP:1,2016-01-02T10:06:00Z,28.4330,-82.6670,94.66,1111122 
COMPS,ioos:station:USF.COMPS:ARP:1,2016-01-02T10:12:00Z,28.4330,-82.6670,94.62,1111122 
COMPS,ioos:station:USF.COMPS:ARP:1,2016-01-02T10:18:00Z,28.4330,-82.6670,94.59,1111122 
COMPS,ioos:station:USF.COMPS:ARP:1,2016-01-02T10:24:00Z,28.4330,-82.6670,94.62,1111122 
COMPS,ioos:station:USF.COMPS:ARP:1,2016-01-02T10:30:00Z,28.4330,-82.6670,94.57,1111122 
COMPS,ioos:station:USF.COMPS:ARP:1,2016-01-02T10:36:00Z,28.4330,-82.6670,94.54,1111122 
COMPS,ioos:station:USF.COMPS:ARP:1,2016-01-02T10:42:00Z,28.4330,-82.6670,94.45,1111122 
COMPS,ioos:station:USF.COMPS:ARP:1,2016-01-02T10:48:00Z,28.4330,-82.6670,94.15,1111122 
COMPS,ioos:station:USF.COMPS:ARP:1,2016-01-02T10:54:00Z,28.4330,-82.6670,93.84,1111122 
COMPS,ioos:station:USF.COMPS:ARP:1,2016-01-02T11:00:00Z,28.4330,-82.6670,93.29,1111122 
COMPS,ioos:station:USF.COMPS:ARP:1,2016-01-02T11:06:00Z,28.4330,-82.6670,92.86,1111122 
COMPS,ioos:station:USF.COMPS:ARP:1,2016-01-02T11:12:00Z,28.4330,-82.6670,92.78,1111122 
COMPS,ioos:station:USF.COMPS:ARP:1,2016-01-02T11:18:00Z,28.4330,-82.6670,92.63,1111122 
COMPS,ioos:station:USF.COMPS:ARP:1,2016-01-02T11:24:00Z,28.4330,-82.6670,92.43,1111122 
COMPS,ioos:station:USF.COMPS:ARP:1,2016-01-02T11:30:00Z,28.4330,-82.6670,92.6,1111122 
COMPS,ioos:station:USF.COMPS:ARP:1,2016-01-02T11:36:00Z,28.4330,-82.6670,92.43,1111122 
COMPS,ioos:station:USF.COMPS:ARP:1,2016-01-02T11:42:00Z,28.4330,-82.6670,92.05,1111122 
COMPS,ioos:station:USF.COMPS:ARP:1,2016-01-02T11:48:00Z,28.4330,-82.6670,91.84,1111122 
COMPS,ioos:station:USF.COMPS:ARP:1,2016-01-02T11:54:00Z,28.4330,-82.6670,91.83,1111122 
COMPS,ioos:station:USF.COMPS:ARP:1,2016-01-02T12:00:00Z,28.4330,-82.6670,91.63,1111122 
COMPS,ioos:station:USF.COMPS:ARP:1,2016-01-02T12:06:00Z,28.4330,-82.6670,91.56,1111122 
COMPS,ioos:station:USF.COMPS:ARP:1,2016-01-02T12:12:00Z,28.4330,-82.6670,91.75,1111122 
COMPS,ioos:station:USF.COMPS:ARP:1,2016-01-02T12:18:00Z,28.4330,-82.6670,91.94,1111122 
COMPS,ioos:station:USF.COMPS:ARP:1,2016-01-02T12:24:00Z,28.4330,-82.6670,92.11,1111122 
COMPS,ioos:station:USF.COMPS:ARP:1,2016-01-02T12:30:00Z,28.4330,-82.6670,92.19,1111122 
COMPS,ioos:station:USF.COMPS:ARP:1,2016-01-02T12:36:00Z,28.4330,-82.6670,92.25,1111122 
COMPS,ioos:station:USF.COMPS:ARP:1,2016-01-02T12:42:00Z,28.4330,-82.6670,92.51,1111122 
COMPS,ioos:station:USF.COMPS:ARP:1,2016-01-02T12:48:00Z,28.4330,-82.6670,92.42,1111122 
COMPS,ioos:station:USF.COMPS:ARP:1,2016-01-02T12:54:00Z,28.4330,-82.6670,92.37,1111122 
COMPS,ioos:station:USF.COMPS:ARP:1,2016-01-02T13:00:00Z,28.4330,-82.6670,92.28,1111122 
COMPS,ioos:station:USF.COMPS:ARP:1,2016-01-02T13:06:00Z,28.4330,-82.6670,92.15,1111122 
COMPS,ioos:station:USF.COMPS:ARP:1,2016-01-02T13:12:00Z,28.4330,-82.6670,92.12,1111122 
COMPS,ioos:station:USF.COMPS:ARP:1,2016-01-02T13:18:00Z,28.4330,-82.6670,92.2,1111122 
COMPS,ioos:station:USF.COMPS:ARP:1,2016-01-02T13:24:00Z,28.4330,-82.6670,92.43,1111122 
COMPS,ioos:station:USF.COMPS:ARP:1,2016-01-02T13:30:00Z,28.4330,-82.6670,92.72,1111122 
COMPS,ioos:station:USF.COMPS:ARP:1,2016-01-02T13:36:00Z,28.4330,-82.6670,92.95,1111122 
COMPS,ioos:station:USF.COMPS:ARP:1,2016-01-02T13:42:00Z,28.4330,-82.6670,92.94,1111122 
COMPS,ioos:station:USF.COMPS:ARP:1,2016-01-02T13:48:00Z,28.4330,-82.6670,92.59,1111122 
COMPS,ioos:station:USF.COMPS:ARP:1,2016-01-02T13:54:00Z,28.4330,-82.6670,92.33,1111122 
COMPS,ioos:station:USF.COMPS:ARP:1,2016-01-02T14:00:00Z,28.4330,-82.6670,91.36,1111122 
COMPS,ioos:station:USF.COMPS:ARP:1,2016-01-02T14:06:00Z,28.4330,-82.6670,90.75,1111122 
COMPS,ioos:station:USF.COMPS:ARP:1,2016-01-02T14:12:00Z,28.4330,-82.6670,90.37,1111122 
COMPS,ioos:station:USF.COMPS:ARP:1,2016-01-02T14:18:00Z,28.4330,-82.6670,90.44,1111122 
COMPS,ioos:station:USF.COMPS:ARP:1,2016-01-02T14:24:00Z,28.4330,-82.6670,89.47,1111122 
COMPS,ioos:station:USF.COMPS:ARP:1,2016-01-02T14:30:00Z,28.4330,-82.6670,88.64,1111122 
COMPS,ioos:station:USF.COMPS:ARP:1,2016-01-02T14:36:00Z,28.4330,-82.6670,87.66,1111122 
COMPS,ioos:station:USF.COMPS:ARP:1,2016-01-02T14:42:00Z,28.4330,-82.6670,88.17,1111122 
COMPS,ioos:station:USF.COMPS:ARP:1,2016-01-02T14:48:00Z,28.4330,-82.6670,86.53,1111122 
COMPS,ioos:station:USF.COMPS:ARP:1,2016-01-02T14:54:00Z,28.4330,-82.6670,85.95,1111122 
COMPS,ioos:station:USF.COMPS:ARP:1,2016-01-02T15:00:00Z,28.4330,-82.6670,85.15,1111122 
COMPS,ioos:station:USF.COMPS:ARP:1,2016-01-02T15:06:00Z,28.4330,-82.6670,83.78,1111122 
COMPS,ioos:station:USF.COMPS:ARP:1,2016-01-02T15:12:00Z,28.4330,-82.6670,82.13,1111122 
COMPS,ioos:station:USF.COMPS:ARP:1,2016-01-02T15:18:00Z,28.4330,-82.6670,80.64,1111122 
COMPS,ioos:station:USF.COMPS:ARP:1,2016-01-02T15:24:00Z,28.4330,-82.6670,79.36,1111122 
COMPS,ioos:station:USF.COMPS:ARP:1,2016-01-02T15:30:00Z,28.4330,-82.6670,78.22,1111122 
COMPS,ioos:station:USF.COMPS:ARP:1,2016-01-02T15:36:00Z,28.4330,-82.6670,76.54,1111122 
COMPS,ioos:station:USF.COMPS:ARP:1,2016-01-02T15:42:00Z,28.4330,-82.6670,77.28,1111122 
COMPS,ioos:station:USF.COMPS:ARP:1,2016-01-02T15:48:00Z,28.4330,-82.6670,76.15,1111122 
COMPS,ioos:station:USF.COMPS:ARP:1,2016-01-02T15:54:00Z,28.4330,-82.6670,74.72,1111122 
COMPS,ioos:station:USF.COMPS:ARP:1,2016-01-02T16:00:00Z,28.4330,-82.6670,73.17,1111122 
COMPS,ioos:station:USF.COMPS:ARP:1,2016-01-02T16:06:00Z,28.4330,-82.6670,73.21,1111122 